Time,TemperatureF,DewpointF,PressureIn,WindDirection,WindDirectionDegrees,WindSpeedMPH,WindSpeedGustMPH,Humidity,HourlyPrecipIn,Conditions,Clouds,dailyrainin,SoftwareType,DateUTC
2013-06-02 00:03:00,61.0,-99.9,29.80,WSW,243,11.0,22.0,87,0.00,,,0.00,,2013-06-02 04:03:00,
2013-06-02 00:13:00,61.0,57.0,29.80,WSW,243,11.0,22.0,87,0.00,,,0.00,,2013-06-02 04:13:00,
2013-06-02 00:23:00,61.0,57.0,29.80,SW,219,10.0,18.0,88,0.00,,,0.00,,2013-06-02 04:23:00,
2013-06-02 00:33:00,60.0,57.0,29.80,WSW,238,12.0,18.0,89,0.00,,,0.00,,2013-06-02 04:33:00,
2013-06-02 00:42:00,60.0,57.0,29.80,WSW,238,12.0,18.0,89,0.00,,,0.00,,2013-06-02 04:42:00,
2013-06-02 00:53:00,60.0,57.0,29.80,SW,222,11.0,17.0,90,0.00,,,0.00,,2013-06-02 04:53:00,
2013-06-02 01:03:00,60.0,57.0,29.80,SW,223,11.0,19.0,90,0.00,,,0.00,,2013-06-02 05:03:00,
2013-06-02 01:12:00,60.0,57.0,29.80,SW,223,11.0,19.0,90,0.00,,,0.00,,2013-06-02 05:12:00,
2013-06-02 01:22:00,60.0,57.0,29.79,SW,230,12.0,20.0,91,0.00,,,0.00,,2013-06-02 05:22:00,
2013-06-02 01:32:00,60.0,57.0,29.80,SW,230,12.0,19.0,91,0.00,,,0.00,,2013-06-02 05:32:00,
2013-06-02 01:42:00,60.0,57.0,29.80,SW,230,12.0,19.0,91,0.00,,,0.00,,2013-06-02 05:42:00,
2013-06-02 01:52:00,60.0,58.0,29.79,SW,235,12.0,22.0,92,0.00,,,0.00,,2013-06-02 05:52:00,
2013-06-02 02:01:00,59.0,57.0,29.79,SW,228,10.0,21.0,92,0.00,,,0.00,,2013-06-02 06:01:00,
2013-06-02 02:12:00,59.0,57.0,29.79,SW,228,10.0,21.0,92,0.00,,,0.00,,2013-06-02 06:12:00,
2013-06-02 02:21:00,59.0,57.0,29.78,SW,233,11.0,17.0,93,0.00,,,0.00,,2013-06-02 06:21:00,
2013-06-02 02:32:00,59.0,57.0,29.78,SW,218,12.0,18.0,93,0.00,,,0.00,,2013-06-02 06:32:00,
2013-06-02 02:42:00,59.0,57.0,29.78,SW,218,12.0,18.0,93,0.00,,,0.00,,2013-06-02 06:42:00,
2013-06-02 02:52:00,59.0,57.0,29.78,SE,141,4.0,9.0,94,0.00,,,0.00,,2013-06-02 06:52:00,
2013-06-02 03:01:00,59.0,57.0,29.78,SSW,207,3.0,12.0,94,0.00,,,0.00,,2013-06-02 07:01:00,
2013-06-02 03:11:00,59.0,57.0,29.78,SSW,207,3.0,12.0,94,0.00,,,0.00,,2013-06-02 07:11:00,
2013-06-02 03:22:00,59.0,57.0,29.77,WSW,250,2.0,10.0,94,0.00,,,0.00,,2013-06-02 07:22:00,
2013-06-02 03:32:00,59.0,57.0,29.77,NW,310,3.0,11.0,94,0.00,,,0.00,,2013-06-02 07:32:00,
2013-06-02 03:42:00,59.0,57.0,29.77,NW,310,3.0,11.0,94,0.00,,,0.00,,2013-06-02 07:42:00,
2013-06-02 03:52:00,59.0,58.0,29.77,SW,229,2.0,9.0,95,0.00,,,0.00,,2013-06-02 07:52:00,
2013-06-02 04:02:00,58.0,57.0,29.78,SSW,208,3.0,7.0,95,0.00,,,0.00,,2013-06-02 08:02:00,
2013-06-02 04:12:00,58.0,57.0,29.78,SSW,208,3.0,7.0,95,0.00,,,0.00,,2013-06-02 08:12:00,
2013-06-02 04:21:00,58.0,57.0,29.78,SW,223,3.0,9.0,95,0.00,,,0.00,,2013-06-02 08:21:00,
2013-06-02 04:32:00,58.0,57.0,29.78,SW,231,3.0,9.0,95,0.00,,,0.00,,2013-06-02 08:32:00,
2013-06-02 04:42:00,58.0,57.0,29.78,SW,231,3.0,9.0,95,0.00,,,0.00,,2013-06-02 08:42:00,
2013-06-02 04:52:00,58.0,57.0,29.78,West,260,3.0,10.0,95,0.00,,,0.00,,2013-06-02 08:52:00,
2013-06-02 05:01:00,58.0,57.0,29.78,SW,217,2.0,9.0,95,0.00,,,0.00,,2013-06-02 09:01:00,
2013-06-02 05:11:00,58.0,57.0,29.78,SW,217,2.0,9.0,95,0.00,,,0.00,,2013-06-02 09:11:00,
2013-06-02 05:21:00,58.0,57.0,29.78,SE,133,3.0,12.0,95,0.00,,,0.00,,2013-06-02 09:21:00,
2013-06-02 05:33:00,58.0,57.0,29.78,West,262,4.0,11.0,96,0.00,,,0.00,,2013-06-02 09:33:00,
2013-06-02 05:42:00,58.0,57.0,29.78,West,262,4.0,11.0,96,0.00,,,0.00,,2013-06-02 09:42:00,
2013-06-02 05:53:00,58.0,57.0,29.78,SSE,152,4.0,9.0,96,0.00,,,0.00,,2013-06-02 09:53:00,
2013-06-02 06:02:00,58.0,57.0,29.78,West,264,3.0,10.0,95,0.00,,,0.00,,2013-06-02 10:02:00,
2013-06-02 06:12:00,58.0,57.0,29.78,West,264,3.0,10.0,95,0.00,,,0.00,,2013-06-02 10:12:00,
2013-06-02 06:23:00,58.0,57.0,29.79,SW,218,2.0,8.0,95,0.00,,,0.00,,2013-06-02 10:23:00,
2013-06-02 06:32:00,58.0,57.0,29.79,West,261,5.0,12.0,95,0.00,,,0.00,,2013-06-02 10:32:00,
2013-06-02 06:42:00,58.0,57.0,29.79,West,261,5.0,12.0,95,0.00,,,0.00,,2013-06-02 10:42:00,
2013-06-02 06:52:00,59.0,58.0,29.79,WSW,241,3.0,10.0,95,0.00,,,0.00,,2013-06-02 10:52:00,
2013-06-02 07:02:00,59.0,57.0,29.79,West,264,3.0,11.0,94,0.00,,,0.00,,2013-06-02 11:02:00,
2013-06-02 07:12:00,59.0,57.0,29.79,West,264,3.0,11.0,94,0.00,,,0.00,,2013-06-02 11:12:00,
2013-06-02 07:22:00,59.0,57.0,29.80,WSW,254,2.0,9.0,94,0.00,,,0.00,,2013-06-02 11:22:00,
2013-06-02 07:32:00,60.0,58.0,29.80,West,263,3.0,11.0,93,0.00,,,0.00,,2013-06-02 11:32:00,
2013-06-02 07:42:00,60.0,58.0,29.80,West,263,3.0,11.0,93,0.00,,,0.00,,2013-06-02 11:42:00,
2013-06-02 07:52:00,58.0,56.0,29.80,WSW,250,6.0,12.0,94,0.00,,,0.00,,2013-06-02 11:52:00,
2013-06-02 08:01:00,59.0,57.0,29.80,SW,232,9.0,17.0,94,0.00,,,0.00,,2013-06-02 12:01:00,
2013-06-02 08:11:00,59.0,57.0,29.80,SW,232,9.0,17.0,94,0.00,,,0.00,,2013-06-02 12:11:00,
2013-06-02 08:22:00,59.0,57.0,29.80,WSW,252,9.0,15.0,94,0.00,,,0.00,,2013-06-02 12:22:00,
2013-06-02 08:32:00,60.0,58.0,29.80,SW,230,10.0,21.0,93,0.00,,,0.00,,2013-06-02 12:32:00,
2013-06-02 08:42:00,60.0,58.0,29.80,SW,230,10.0,21.0,93,0.00,,,0.00,,2013-06-02 12:42:00,
2013-06-02 08:53:00,60.0,58.0,29.80,WSW,250,12.0,20.0,92,0.00,,,0.00,,2013-06-02 12:53:00,
2013-06-02 09:01:00,61.0,58.0,29.80,SW,227,11.0,17.0,91,0.00,,,0.00,,2013-06-02 13:01:00,
2013-06-02 09:12:00,61.0,58.0,29.80,SW,227,11.0,17.0,91,0.00,,,0.00,,2013-06-02 13:12:00,
2013-06-02 09:22:00,61.0,58.0,29.80,SW,216,10.0,19.0,91,0.00,,,0.00,,2013-06-02 13:22:00,
2013-06-02 09:32:00,61.0,58.0,29.80,WNW,286,11.0,20.0,90,0.00,,,0.00,,2013-06-02 13:32:00,
2013-06-02 09:42:00,61.0,58.0,29.80,WNW,286,11.0,20.0,90,0.00,,,0.00,,2013-06-02 13:42:00,
2013-06-02 09:52:00,61.0,58.0,29.80,West,278,8.0,22.0,90,0.00,,,0.00,,2013-06-02 13:52:00,
2013-06-02 10:02:00,62.0,59.0,29.79,WSW,251,10.0,20.0,90,0.00,,,0.00,,2013-06-02 14:02:00,
2013-06-02 10:11:00,62.0,59.0,29.79,WSW,251,10.0,20.0,90,0.00,,,0.00,,2013-06-02 14:11:00,
2013-06-02 10:21:00,63.0,59.0,29.79,West,277,11.0,18.0,88,0.00,,,0.00,,2013-06-02 14:21:00,
2013-06-02 10:32:00,63.0,59.0,29.80,SW,227,10.0,20.0,87,0.00,,,0.00,,2013-06-02 14:32:00,
2013-06-02 10:42:00,63.0,59.0,29.80,SW,227,10.0,20.0,87,0.00,,,0.00,,2013-06-02 14:42:00,
2013-06-02 10:52:00,64.0,60.0,29.79,SW,219,7.0,19.0,87,0.00,,,0.00,,2013-06-02 14:52:00,
2013-06-02 11:01:00,64.0,60.0,29.79,SW,235,9.0,19.0,87,0.00,,,0.00,,2013-06-02 15:01:00,
2013-06-02 11:11:00,64.0,60.0,29.79,SW,235,9.0,19.0,87,0.00,,,0.00,,2013-06-02 15:11:00,
2013-06-02 11:22:00,64.0,60.0,29.79,SSW,213,12.0,19.0,88,0.00,,,0.00,,2013-06-02 15:22:00,
2013-06-02 11:33:00,64.0,60.0,29.79,SW,235,11.0,22.0,86,0.00,,,0.00,,2013-06-02 15:33:00,
2013-06-02 11:43:00,64.0,60.0,29.79,SW,216,13.0,23.0,87,0.00,,,0.00,,2013-06-02 15:43:00,
2013-06-02 11:53:00,64.0,60.0,29.79,SW,216,13.0,23.0,87,0.00,,,0.00,,2013-06-02 15:53:00,
2013-06-02 12:03:00,64.0,60.0,29.79,WSW,244,13.0,22.0,86,0.00,,,0.00,,2013-06-02 16:03:00,
2013-06-02 12:13:00,64.0,60.0,29.79,WSW,244,13.0,22.0,86,0.00,,,0.00,,2013-06-02 16:13:00,
2013-06-02 12:23:00,64.0,60.0,29.79,SSW,197,11.0,22.0,86,0.00,,,0.00,,2013-06-02 16:23:00,
2013-06-02 12:33:00,64.0,60.0,29.79,WSW,243,14.0,22.0,86,0.00,,,0.00,,2013-06-02 16:33:00,
2013-06-02 12:42:00,64.0,60.0,29.79,WSW,243,14.0,22.0,86,0.00,,,0.00,,2013-06-02 16:42:00,
2013-06-02 12:53:00,65.0,60.0,29.78,SW,223,11.0,19.0,85,0.00,,,0.00,,2013-06-02 16:53:00,
2013-06-02 13:02:00,65.0,60.0,29.78,SW,222,10.0,21.0,85,0.00,,,0.00,,2013-06-02 17:02:00,
2013-06-02 13:12:00,65.0,60.0,29.78,SW,222,10.0,21.0,85,0.00,,,0.00,,2013-06-02 17:12:00,
2013-06-02 13:23:00,67.0,61.0,29.77,SW,223,11.0,18.0,82,0.00,,,0.00,,2013-06-02 17:23:00,
2013-06-02 13:32:00,65.0,60.0,29.77,WSW,244,12.0,20.0,84,0.00,,,0.00,,2013-06-02 17:32:00,
2013-06-02 13:42:00,66.0,61.0,29.77,WSW,244,10.0,21.0,83,0.00,,,0.00,,2013-06-02 17:42:00,
2013-06-02 13:52:00,66.0,61.0,29.77,WSW,244,10.0,21.0,83,0.00,,,0.00,,2013-06-02 17:52:00,
2013-06-02 14:02:00,67.0,61.0,29.76,SW,219,11.0,22.0,82,0.00,,,0.00,,2013-06-02 18:02:00,
2013-06-02 14:11:00,67.0,61.0,29.76,SW,219,11.0,22.0,82,0.00,,,0.00,,2013-06-02 18:11:00,
2013-06-02 14:21:00,66.0,61.0,29.75,SW,219,12.0,25.0,83,0.00,,,0.00,,2013-06-02 18:21:00,
2013-06-02 14:32:00,64.0,59.0,29.76,WSW,253,10.0,27.0,85,0.00,,,0.00,,2013-06-02 18:32:00,
2013-06-02 14:42:00,64.0,58.0,29.76,WSW,241,11.0,22.0,82,0.00,,,0.00,,2013-06-02 18:42:00,
2013-06-02 14:52:00,64.0,58.0,29.76,WSW,241,11.0,22.0,82,0.00,,,0.00,,2013-06-02 18:52:00,
2013-06-02 15:01:00,64.0,59.0,29.75,WSW,244,9.0,24.0,84,0.00,,,0.00,,2013-06-02 19:01:00,
2013-06-02 15:11:00,64.0,59.0,29.75,WSW,244,9.0,24.0,84,0.00,,,0.00,,2013-06-02 19:11:00,
2013-06-02 15:22:00,64.0,59.0,29.74,WSW,249,13.0,24.0,84,0.00,,,0.00,,2013-06-02 19:22:00,
2013-06-02 15:32:00,65.0,60.0,29.73,WSW,251,14.0,30.0,84,0.00,,,0.00,,2013-06-02 19:32:00,
2013-06-02 15:42:00,65.0,60.0,29.73,WSW,251,14.0,30.0,84,0.00,,,0.00,,2013-06-02 19:42:00,
2013-06-02 15:52:00,68.0,63.0,29.72,SW,217,13.0,33.0,83,0.00,,,0.00,,2013-06-02 19:52:00,
2013-06-02 16:02:00,70.0,63.0,29.70,WSW,252,17.0,27.0,78,0.00,,,0.00,,2013-06-02 20:02:00,
2013-06-02 16:11:00,70.0,63.0,29.70,WSW,252,17.0,27.0,78,0.00,,,0.00,,2013-06-02 20:11:00,
2013-06-02 16:22:00,69.0,62.0,29.70,SW,221,16.0,29.0,79,0.00,,,0.00,,2013-06-02 20:22:00,
2013-06-02 16:32:00,69.0,62.0,29.70,SW,221,16.0,29.0,79,0.00,,,0.00,,2013-06-02 20:32:00,
2013-06-02 16:42:00,69.0,62.0,29.70,SW,221,16.0,29.0,79,0.00,,,0.00,,2013-06-02 20:42:00,
2013-06-02 16:52:00,68.0,62.0,29.70,SSW,211,16.0,34.0,80,0.00,,,0.00,,2013-06-02 20:52:00,
2013-06-02 17:01:00,68.0,62.0,29.70,SW,235,16.0,26.0,81,0.00,,,0.00,,2013-06-02 21:01:00,
2013-06-02 17:12:00,68.0,62.0,29.70,SW,235,16.0,26.0,81,0.00,,,0.00,,2013-06-02 21:12:00,
2013-06-02 17:22:00,67.0,61.0,29.69,SW,223,18.0,32.0,82,0.00,,,0.00,,2013-06-02 21:22:00,
2013-06-02 17:33:00,66.0,60.0,29.70,SSW,209,12.0,24.0,82,0.00,,,0.00,,2013-06-02 21:33:00,
2013-06-02 17:42:00,66.0,60.0,29.70,SSW,209,12.0,24.0,82,0.00,,,0.00,,2013-06-02 21:42:00,
2013-06-02 17:53:00,65.0,59.0,29.70,WSW,244,15.0,29.0,82,0.00,,,0.00,,2013-06-02 21:53:00,
2013-06-02 18:03:00,65.0,60.0,29.70,WSW,248,18.0,30.0,83,0.00,,,0.00,,2013-06-02 22:03:00,
2013-06-02 18:12:00,65.0,60.0,29.70,WSW,248,18.0,30.0,83,0.00,,,0.00,,2013-06-02 22:12:00,
2013-06-02 18:23:00,65.0,60.0,29.70,SW,223,14.0,34.0,84,0.00,,,0.00,,2013-06-02 22:23:00,
2013-06-02 18:33:00,64.0,59.0,29.70,SSW,213,17.0,38.0,84,0.00,,,0.00,,2013-06-02 22:33:00,
2013-06-02 18:42:00,64.0,59.0,29.70,SSW,213,17.0,38.0,84,0.00,,,0.00,,2013-06-02 22:42:00,
2013-06-02 18:53:00,64.0,59.0,29.70,SW,231,15.0,32.0,84,0.00,,,0.00,,2013-06-02 22:53:00,
2013-06-02 19:02:00,64.0,59.0,29.70,SW,231,15.0,32.0,84,0.00,,,0.00,,2013-06-02 23:02:00,
2013-06-02 19:12:00,64.0,59.0,29.70,SW,231,15.0,32.0,84,0.00,,,0.00,,2013-06-02 23:12:00,
2013-06-02 19:22:00,64.0,59.0,29.70,SW,231,15.0,32.0,84,0.00,,,0.00,,2013-06-02 23:22:00,
2013-06-02 19:32:00,58.0,55.0,29.77,WNW,298,12.0,22.0,90,0.00,,,0.00,,2013-06-02 23:32:00,
2013-06-02 19:43:00,58.0,55.0,29.77,WNW,298,12.0,22.0,90,0.00,,,0.00,,2013-06-02 23:43:00,
2013-06-02 19:53:00,59.0,56.0,29.74,WSW,255,10.0,24.0,91,0.00,,,0.00,,2013-06-02 23:53:00,
2013-06-02 20:01:00,59.0,56.0,29.75,WSW,254,7.0,17.0,91,0.00,,,0.00,,2013-06-03 00:01:00,
2013-06-02 20:12:00,59.0,56.0,29.75,WSW,254,7.0,17.0,91,0.00,,,0.00,,2013-06-03 00:12:00,
2013-06-02 20:22:00,59.0,57.0,29.75,SW,225,9.0,20.0,92,0.00,,,0.00,,2013-06-03 00:22:00,
2013-06-02 20:32:00,58.0,56.0,29.75,WSW,244,10.0,16.0,93,0.00,,,0.00,,2013-06-03 00:32:00,
2013-06-02 20:42:00,58.0,56.0,29.75,WSW,244,10.0,16.0,93,0.00,,,0.00,,2013-06-03 00:42:00,
2013-06-02 20:52:00,58.0,56.0,29.75,WSW,239,9.0,18.0,93,0.00,,,0.00,,2013-06-03 00:52:00,
2013-06-02 21:01:00,59.0,57.0,29.75,SW,232,10.0,18.0,93,0.00,,,0.00,,2013-06-03 01:01:00,
2013-06-02 21:11:00,59.0,57.0,29.75,SW,232,10.0,18.0,93,0.00,,,0.00,,2013-06-03 01:11:00,
2013-06-02 21:21:00,59.0,57.0,29.75,SW,227,10.0,17.0,93,0.00,,,0.00,,2013-06-03 01:21:00,
2013-06-02 21:32:00,58.0,56.0,29.76,WSW,241,11.0,19.0,93,0.00,,,0.00,,2013-06-03 01:32:00,
2013-06-02 21:42:00,58.0,56.0,29.76,WSW,241,11.0,19.0,93,0.00,,,0.00,,2013-06-03 01:42:00,
2013-06-02 21:52:00,58.0,56.0,29.77,SW,231,10.0,20.0,94,0.00,,,0.00,,2013-06-03 01:52:00,
2013-06-02 22:02:00,58.0,56.0,29.77,SW,221,9.0,19.0,94,0.00,,,0.00,,2013-06-03 02:02:00,
2013-06-02 22:12:00,58.0,56.0,29.77,SW,221,9.0,19.0,94,0.00,,,0.00,,2013-06-03 02:12:00,
2013-06-02 22:22:00,57.0,55.0,29.77,WSW,257,10.0,19.0,94,0.00,,,0.00,,2013-06-03 02:22:00,
2013-06-02 22:32:00,57.0,55.0,29.77,WSW,257,10.0,19.0,94,0.00,,,0.00,,2013-06-03 02:32:00,
2013-06-02 22:42:00,57.0,55.0,29.77,WSW,257,10.0,19.0,94,0.00,,,0.00,,2013-06-03 02:42:00,
2013-06-02 22:52:00,57.0,55.0,29.78,SW,236,8.0,16.0,94,0.00,,,0.00,,2013-06-03 02:52:00,
2013-06-02 23:02:00,57.0,55.0,29.77,SW,234,12.0,19.0,94,0.00,,,0.00,,2013-06-03 03:02:00,
2013-06-02 23:12:00,57.0,55.0,29.77,SW,234,12.0,19.0,94,0.00,,,0.00,,2013-06-03 03:12:00,
2013-06-02 23:22:00,59.0,58.0,29.74,SW,229,6.0,15.0,95,0.00,,,0.00,,2013-06-03 03:22:00,
2013-06-02 23:33:00,58.0,56.0,29.75,SW,226,8.0,17.0,93,0.00,,,0.00,,2013-06-03 03:33:00,
2013-06-02 23:43:00,58.0,56.0,29.75,SW,226,8.0,17.0,93,0.00,,,0.00,,2013-06-03 03:43:00,
2013-06-02 23:53:00,59.0,58.0,29.75,SW,233,5.0,11.0,95,0.00,,,0.00,,2013-06-03 03:53:00,